Location: La Silve
(44.2414°N, 5.8889°E)
Time: 05:12:39
(UTC+00:00)

USA 215 - Pass Details

Date: 01 December 2020
Orbit: 1098 x 1110 km, 123.0° (Epoch: 22 January)

Event Time Altitude Azimuth Distance (km) Brightness Sun altitude
Exits shadow 18:46:50 65° 31° (NNE) 1,207 3.2 -29.4°
Maximum altitude 18:47:52 80° 323° (NW) 1,128 3.2 -29.6°
Drops below altitude 10° 18:54:26 10° 238° (WSW) 2,968 6.2 -30.8°
Sets 18:56:54 0° 237° (WSW) 3,924 7.0 -31.2°
